Location: Dealu Mare
(46.0500°N, 22.8167°E)
Time: 21:53:18
(UTC+00:00)

Cosmos 1943 Rocket - Pass Details

Date: 15 January 2026
Orbit: 811 x 842 km, 71.0° (Epoch: 10 February)

Event Time Altitude Azimuth Distance (km) Brightness Sun altitude
Rises 03:36:44 0° 187° (S) 3,324 5.3 -25.5°
Reaches altitude 10° 03:39:13 10° 181° (S) 2,394 4.6 -25.1°
Maximum altitude 03:44:27 48° 109° (ESE) 1,057 3.1 -24.2°
Drops below altitude 10° 03:49:42 10° 36° (NE) 2,407 4.9 -23.3°
Sets 03:52:12 0° 31° (NNE) 3,344 5.6 -22.8°
